Regional Weather Roundup
Issued by NWS

Home | Current Version | Previous Version | Graphics & Text | Print | Product List | Glossary Off
Versions: 1 2 3 4 5 6 7 8 9 10 11 12 13 14 15 16 17 18 19 20 21 22 23 24 25 26 27 28 29 30 31 32 33 34 35 36 37 38 39 40 41 42 43 44 45 46 47 48 49 50

000
ASUS43 KDTX 221701
RWRMI
MICHIGAN HOURLY REGIONAL WEATHER ROUNDUP
NATIONAL WEATHER SERVICE DETROIT/PONTIAC MI
1200 PM EST SUN JAN 22 2017

NOTE: "FAIR" INDICATES FEW OR NO CLOUDS BELOW 12,000 FEET WITH NO
SIGNIFICANT WEATHER AND/OR OBSTRUCTION TO VISIBILITY.

MIZ047>049-052>055-059>063-066>070-074>076-081>083-221800-
SOUTHEAST LOWER MICHIGAN

CITY           SKY/WX    TMP DP  RH WIND       PRES   REMARKS
ADRIAN         FOG       47  47 100 E5        29.63F VSB 1/4
ALMA           FOG       39  39  99 E3        29.66F VSB 1/4
ANN ARBOR      FOG       47  47 100 CALM      29.63S VSB 1/4
BAD AXE        FOG       44  44 100 CALM      29.66S VSB 1/2
CARO           FOG       45  45 100 CALM      29.65F VSB 1/4
DETROIT CITY   FOG       45  45 100 CALM      29.64F VSB<1/4
DETROIT        FOG       47  47 100 NE3       29.64F VSB<1/4
FLINT          FOG       47  45  93 NW3       29.65S VSB 1/4
GROSSE ILE     FOG       46  46  99 NE3       29.62F VSB<1/4
HILLSDALE      MOSUNNY   54  46  76 CALM      29.60F
HOWELL         FOG       46  45  96 CALM      29.63F VSB 1/4

CITY           SKY/WX    TMP DP  RH WIND       PRES   REMARKS
JACKSON        FOG       47  46  97 CALM      29.62F VSB<1/4
LAMBERTVILLE   MOSUNNY   55  53  94 CALM      29.61F
LANSING        CLOUDY    42  39  89 CALM      29.65F FOG
LAPEER         FOG       46  45  99 CALM      29.64F VSB<1/4
MASON          CLOUDY    45  45 100 CALM      29.63F FOG
MONROE         MOSUNNY   51  51 100 N5        29.61F
MT. CLEMENS    FOG       43  43 100 CALM      29.62F VSB 1/16
PONTIAC        FOG       46  44  93 NE5       29.62F VSB 1/4
PORT HOPE        N/A     40  40 100 CALM      29.65S
PORT HURON     FOG       46  46 100 CALM      29.65F VSB 1/4
TRI CITIES     FOG       41  41 100 CALM      29.66S VSB 1/4
MIDLAND        FOG       42  41  97 CALM      29.66S VSB 1/4
TROY           FOG       44  43  95 CALM      29.65F VSB 1/4
SAGINAW HB     FOG       41  39  93 CALM      29.66S VSB 1/2
$$
MIZ043>046-050>051-056>058-064>065-071>073-077>080-221800-
SOUTHWEST LOWER MICHIGAN

CITY           SKY/WX    TMP DP  RH WIND       PRES   REMARKS
BATTLE CREEK   CLOUDY    43  43 100 N3        29.64S FOG
BENTON HARBOR  FOG       42  40  92 NE3       29.64F VSB 1/4
BIG RAPIDS     CLOUDY    40  39  97 CALM      29.65S FOG
COLDWATER      FOG       48  48 100 N3        29.62F VSB 1
FREMONT        CLOUDY    41  41 100 E5        29.65F FOG
HOLLAND        CLOUDY    43  42  97 NE6       29.65F
GRAND RAPIDS   FOG       38  37  97 CALM      29.66S VSB 1/8
IONIA          FOG       37  37 100 NE3       29.66S VSB<1/4
KALAMAZOO      FOG       41  38  89 N7        29.64F VSB 1/4
LUDINGTON      CLOUDY    40  40 100 CALM      29.65F FOG
MARSHALL       FOG       46  46  98 CALM      29.63F VSB 1/2
MOUNT PLEASANT CLOUDY    40  39  99 CALM      29.66S FOG
MUSKEGON       CLOUDY    46  42  86 CALM      29.66F
SOUTH HAVEN    FOG       40  40 100 NE3       29.65F VSB 1/2
$$
MIZ016>042-221800-
NORTHERN LOWER MICHIGAN

CITY           SKY/WX    TMP DP  RH WIND       PRES   REMARKS
ALPENA         FOG       41  39  93 CALM      29.67S VSB<1/4
BEAVER ISLAND  CLOUDY    41  41 100 S5        29.65F
BELLAIRE       CLOUDY    40  40  99 S3        29.65F
CADILLAC       CLOUDY    41  40  97 CALM      29.64S FOG
CHARLEVOIX     CLOUDY    40  40 100 CALM      29.67F
FRANKFORT      CLOUDY    44  40  89 SE5       29.65S
GAYLORD        FOG       41  38  89 S3        29.63F VSB<1/4
GRAYLING       FOG       39  39  99 CALM      29.65F VSB<1/4
HARBOR SPRINGS CLOUDY    40  40 100 CALM      29.64F FOG
HOUGHTON LAKE  CLOUDY    41  41 100 S5        29.65S
MANISTEE       CLOUDY    40  40 100 E3        29.65F FOG
OSCODA         FOG       43  42  97 CALM      29.66S VSB 3/4
PELLSTON       FOG       38  37  97 SE3       29.65F VSB 1/4
ROGERS CITY    CLOUDY    39  38  96 CALM      29.66F FOG
TRAVERSE CITY  CLOUDY    43  41  93 CALM      29.65S FOG
$$
MIZ007>008-015-221800-
EASTERN UPPER MICHIGAN

CITY           SKY/WX    TMP DP  RH WIND       PRES   REMARKS
KINROSS        MIX PCPN  36  35  96 SE9       29.66S VSB 1/4 WCI  29
MACKINAC ISLAN FOG       36  36 100 E3        29.65S VSB<1/4
NEWBERRY       FOG       37  36  96 S6        29.64S VSB 1/4 WCI  32
S. S. MARIE    CLOUDY    38  37  97 SE6       29.66S FOG     WCI  33
MUNISING         N/A     37  37 100 S5        29.63R WCI  33
$$
MIZ004>006-011>014-085-221800-
CENTRAL UPPER MICHIGAN

CITY           SKY/WX    TMP DP  RH WIND       PRES   REMARKS
MANISTIQUE     CLOUDY    34  34  98 CALM      29.64S FOG
ESCANABA       CLOUDY    37  37 100 CALM      29.65S
SAWYER-GWINN   CLOUDY    34  34 100 CALM      29.62R FOG
$$
MIZ001>003-009>011-084-221800-
WESTERN UPPER MICHIGAN

CITY           SKY/WX    TMP DP  RH WIND       PRES   REMARKS
IRON MOUNTAIN  CLOUDY    36  34  92 CALM      29.62R FOG
HOUGHTON       FOG       35  34  96 CALM      29.60S VSB 1/4
COPPER HARBOR    N/A     35  35 100 N3        29.62R
IRONWOOD       FOG       35  34  96 W6        29.65R VSB 1/4 WCI  30
$$

ABBREVIATIONS USED IN REMARKS
   TC - TEMPERATURE IN CELSIUS
  WCI - WIND CHILL INDEX
   HX - HEAT INDEX
  VSB - VISIBILITY




USA.gov is the U.S. government's official web portal to all federal, state and local government web resources and services.